IRIDIUM 15 [-]

Last updated on Mon Oct 15 2018 01:08:10 GMT+0100 (British Summer Time)

1 24869U 97034A 18287.41071958 .77927556 -17130-5 30831-3 0 9997 2 24869 86.3761 178.1283 0024945 112.3399 249.2674 16.56698202113738

Satellite not in orbit